Location: Olmeneta
(45.2333°N, 10.0167°E)
Time: 07:18:02
(UTC+00:00)

CSL-04 Debris - Pass Details

Date: 03 March 2021
Orbit: 827 x 848 km, 98.9° (Epoch: 10 April)

Event Time Altitude Azimuth Distance (km) Brightness Sun altitude
Rises 18:22:23 0° 164° (SSE) 3,369 7.1 -13.5°
Reaches altitude 10° 18:24:44 10° 165° (SSE) 2,443 6.4 -13.9°
Maximum altitude 18:30:09 88° 252° (WSW) 847 4.2 -14.9°
Drops below altitude 10° 18:35:40 10° 345° (NNW) 2,474 6.9 -15.9°
Sets 18:38:03 0° 346° (NNW) 3,416 7.6 -16.3°
